This is the latest recevied weather packets stored in our database for station/object KJ5BMY-13. If no packets are shown the sender has not sent any weather packets the latest 1 day(s).
| Time | Temp. | Humidity | Pressure | Rain* | Wind** | Luminosity | Snow |
|---|---|---|---|---|---|---|---|
| 1777997021 | 27.22° C | 70% | 1006.8 hPa | 0 mm | 0.89 m/s, 284° | - | - |
| 1777996717 | 27.22° C | 70% | 1006.9 hPa | 0 mm | 2.68 m/s, 138° | - | - |
| 1777996413 | 27.22° C | 70% | 1007.1 hPa | 0 mm | 3.58 m/s, 202° | - | - |
| 1777996110 | 26.67° C | 71% | 1007.1 hPa | 0 mm | 0.45 m/s, 123° | - | - |
| 1777995806 | 26.67° C | 71% | 1006.8 hPa | 0 mm | 2.68 m/s, 111° | - | - |
| 1777995503 | 26.67° C | 73% | 1007.1 hPa | 0 mm | 0.89 m/s, 144° | - | - |
| 1777995200 | 26.67° C | 72% | 1007.1 hPa | 0 mm | 1.34 m/s, 75° | - | - |
| 1777994897 | 26.67° C | 72% | 1007.3 hPa | 0 mm | 1.79 m/s, 191° | - | - |
| 1777994594 | 26.11° C | 74% | 1007.1 hPa | 0 mm | 0.89 m/s, 177° | - | - |
| 1777994293 | 26.11° C | 75% | 1007.2 hPa | 0 mm | 0.89 m/s, 48° | - | - |
| 1777993990 | 25.56° C | 75% | 1007.2 hPa | 0 mm | 0.45 m/s, 147° | - | - |
| 1777993687 | 25° C | 76% | 1007.1 hPa | 0 mm | 1.34 m/s, 41° | - | - |
| 1777993384 | 25° C | 77% | 1007.1 hPa | 0 mm | 1.34 m/s, 124° | - | - |
| 1777993079 | 25° C | 77% | 1007.2 hPa | 0 mm | 1.34 m/s, 151° | - | - |
| 1777992778 | 24.44° C | 77% | 1007.3 hPa | 0 mm | 1.34 m/s, 302° | - | - |
| 1777992475 | 25° C | 77% | 1007.4 hPa | 0 mm | 1.34 m/s, 192° | - | - |
| 1777992173 | 24.44° C | 78% | 1007 hPa | 0 mm | 0.45 m/s, 54° | - | - |
| 1777991869 | 24.44° C | 78% | 1007 hPa | 0 mm | 0.45 m/s, 258° | - | - |
| 1777991567 | 24.44° C | 78% | 1007.1 hPa | 0 mm | 0.89 m/s, 209° | - | - |
| 1777991264 | 25° C | 77% | 1007.3 hPa | 0 mm | 1.79 m/s, 165° | - | - |
| 1777990961 | 25° C | 78% | 1007.3 hPa | 0 mm | 1.34 m/s, 164° | - | - |
| 1777990659 | 24.44° C | 79% | 1007.4 hPa | 0 mm | 0.45 m/s, 100° | - | - |
| 1777990356 | 23.33° C | 82% | 1007.3 hPa | 0 mm | 0.89 m/s, 102° | - | - |
| 1777990052 | 23.33° C | 82% | 1007.3 hPa | 0 mm | 1.34 m/s, 266° | - | - |
| 1777989749 | 22.78° C | 83% | 1007 hPa | 0 mm | 0.89 m/s, 183° | - | - |
* Rain latest hour (hover to see other rain measurements)
** Current wind speed in m/s (hover to see current wind gust speed)